TimeMST,TemperatureF,Dew PointF,Humidity,Sea Level PressureIn,VisibilityMPH,Wind Direction,Wind SpeedMPH,Gust SpeedMPH,PrecipitationIn,Events,Conditions,WindDirDegrees,DateUTC
12:15 AM,57.2,15.8,20,29.98,10.0,Calm,Calm,-,N/A,,Clear,0,2012-10-26 07:15:00
12:35 AM,57.2,17.6,21,29.98,9.0,Calm,Calm,-,N/A,,Clear,0,2012-10-26 07:35:00
12:55 AM,57.2,15.8,20,29.98,10.0,Calm,Calm,-,N/A,,Clear,0,2012-10-26 07:55:00
1:15 AM,55.4,15.8,21,29.98,10.0,Calm,Calm,-,N/A,,Clear,0,2012-10-26 08:15:00
1:35 AM,55.4,15.8,21,29.98,10.0,Calm,Calm,-,N/A,,Clear,0,2012-10-26 08:35:00
1:55 AM,53.6,15.8,22,29.98,10.0,Calm,Calm,-,N/A,,Clear,0,2012-10-26 08:55:00
2:15 AM,51.8,15.8,24,29.98,10.0,Calm,Calm,-,N/A,,Clear,0,2012-10-26 09:15:00
2:35 AM,53.6,17.6,24,29.98,10.0,Calm,Calm,-,N/A,,Clear,0,2012-10-26 09:35:00
2:55 AM,53.6,17.6,24,29.98,10.0,Calm,Calm,-,N/A,,Clear,0,2012-10-26 09:55:00
3:15 AM,55.4,19.4,25,29.98,10.0,Calm,Calm,-,N/A,,Clear,0,2012-10-26 10:15:00
3:35 AM,55.4,17.6,23,29.98,10.0,Calm,Calm,-,N/A,,Clear,0,2012-10-26 10:35:00
3:55 AM,57.2,19.4,23,29.99,10.0,Calm,Calm,-,N/A,,Clear,0,2012-10-26 10:55:00
4:15 AM,55.4,19.4,25,29.99,10.0,Calm,Calm,-,N/A,,Clear,0,2012-10-26 11:15:00
4:35 AM,55.4,19.4,25,30.00,10.0,Calm,Calm,-,N/A,,Clear,0,2012-10-26 11:35:00
4:55 AM,55.4,19.4,25,30.00,10.0,Calm,Calm,-,N/A,,Clear,0,2012-10-26 11:55:00
5:15 AM,55.4,21.2,26,30.01,10.0,Calm,Calm,-,N/A,,Clear,0,2012-10-26 12:15:00
5:55 AM,48.2,17.6,30,30.02,10.0,Calm,Calm,-,N/A,,Clear,0,2012-10-26 12:55:00
6:35 AM,46.4,17.6,32,30.03,10.0,Calm,Calm,-,N/A,,Clear,0,2012-10-26 13:35:00
6:55 AM,48.2,19.4,32,30.03,10.0,Calm,Calm,-,N/A,,Clear,0,2012-10-26 13:55:00
7:15 AM,51.8,19.4,28,30.03,10.0,Calm,Calm,-,N/A,,Clear,0,2012-10-26 14:15:00
7:35 AM,59.0,23.0,25,30.04,10.0,Calm,Calm,-,N/A,,Clear,0,2012-10-26 14:35:00
7:55 AM,60.8,23.0,23,30.06,10.0,Calm,Calm,-,N/A,,Clear,0,2012-10-26 14:55:00
8:15 AM,64.4,23.0,21,30.06,10.0,North,5.8,-,N/A,,Clear,360,2012-10-26 15:15:00
8:35 AM,64.4,23.0,21,30.06,10.0,North,4.6,-,N/A,,Clear,10,2012-10-26 15:35:00
8:55 AM,66.2,21.2,18,30.07,10.0,North,8.1,-,N/A,,Clear,360,2012-10-26 15:55:00
9:15 AM,68.0,23.0,18,30.07,10.0,North,8.1,-,N/A,,Clear,360,2012-10-26 16:15:00
9:35 AM,69.8,23.0,17,30.07,10.0,Calm,Calm,-,N/A,,Clear,0,2012-10-26 16:35:00
9:55 AM,69.8,23.0,17,30.07,10.0,North,5.8,-,N/A,,Clear,350,2012-10-26 16:55:00
10:15 AM,71.6,23.0,16,30.07,10.0,North,6.9,-,N/A,,Clear,360,2012-10-26 17:15:00
10:35 AM,71.6,24.8,17,30.06,10.0,Calm,Calm,-,N/A,,Clear,0,2012-10-26 17:35:00
10:55 AM,73.4,24.8,16,30.06,10.0,North,4.6,-,N/A,,Clear,360,2012-10-26 17:55:00
11:15 AM,73.4,24.8,16,30.05,10.0,North,3.5,-,N/A,,Clear,360,2012-10-26 18:15:00
11:35 AM,75.2,24.8,15,30.04,10.0,North,8.1,-,N/A,,Clear,350,2012-10-26 18:35:00
11:55 AM,75.2,24.8,15,30.03,10.0,North,3.5,-,N/A,,Clear,350,2012-10-26 18:55:00
12:15 PM,77.0,24.8,14,30.02,10.0,North,8.1,-,N/A,,Clear,360,2012-10-26 19:15:00
12:35 PM,78.8,24.8,14,30.00,10.0,NNW,6.9,-,N/A,,Clear,330,2012-10-26 19:35:00
12:55 PM,78.8,23.0,13,29.99,10.0,NNW,5.8,-,N/A,,Clear,330,2012-10-26 19:55:00
1:15 PM,80.6,24.8,13,29.98,10.0,NW,6.9,-,N/A,,Clear,320,2012-10-26 20:15:00
1:35 PM,78.8,23.0,13,29.97,10.0,NNW,5.8,-,N/A,,Clear,330,2012-10-26 20:35:00
1:55 PM,80.6,23.0,12,29.96,10.0,North,8.1,-,N/A,,Clear,360,2012-10-26 20:55:00
2:15 PM,80.6,21.2,11,29.95,10.0,North,6.9,-,N/A,,Clear,350,2012-10-26 21:15:00
2:35 PM,80.6,23.0,12,29.95,10.0,NNW,8.1,-,N/A,,Clear,330,2012-10-26 21:35:00
2:55 PM,80.6,23.0,12,29.94,10.0,North,6.9,-,N/A,,Clear,350,2012-10-26 21:55:00
3:15 PM,80.6,21.2,11,29.93,10.0,North,5.8,-,N/A,,Clear,350,2012-10-26 22:15:00
3:35 PM,80.6,21.2,11,29.93,10.0,NNW,6.9,-,N/A,,Clear,330,2012-10-26 22:35:00
3:55 PM,80.6,21.2,11,29.92,10.0,NNW,9.2,-,N/A,,Clear,340,2012-10-26 22:55:00
4:15 PM,80.6,21.2,11,29.92,10.0,NNW,10.4,-,N/A,,Clear,330,2012-10-26 23:15:00
4:35 PM,80.6,21.2,11,29.92,10.0,NW,8.1,-,N/A,,Clear,320,2012-10-26 23:35:00
4:55 PM,80.6,21.2,11,29.92,10.0,NW,10.4,-,N/A,,Clear,310,2012-10-26 23:55:00
5:15 PM,78.8,19.4,11,29.92,10.0,NW,10.4,-,N/A,,Clear,310,2012-10-27 00:15:00
5:35 PM,77.0,19.4,12,29.92,10.0,NW,6.9,-,N/A,,Clear,310,2012-10-27 00:35:00
6:15 PM,75.2,17.6,11,29.92,9.0,Calm,Calm,-,N/A,,Clear,0,2012-10-27 01:15:00
6:35 PM,73.4,17.6,12,29.93,10.0,Calm,Calm,-,N/A,,Clear,0,2012-10-27 01:35:00
6:55 PM,73.4,17.6,12,29.93,10.0,NW,5.8,-,N/A,,Clear,320,2012-10-27 01:55:00
7:15 PM,73.4,17.6,12,29.93,10.0,NW,5.8,-,N/A,,Clear,310,2012-10-27 02:15:00
7:35 PM,71.6,15.8,12,29.93,10.0,NW,5.8,-,N/A,,Clear,310,2012-10-27 02:35:00
7:55 PM,71.6,15.8,12,29.93,10.0,NNW,5.8,-,N/A,,Clear,330,2012-10-27 02:55:00
8:15 PM,71.6,15.8,12,29.93,10.0,NW,6.9,-,N/A,,Clear,320,2012-10-27 03:15:00
8:35 PM,71.6,15.8,12,29.93,10.0,NW,5.8,-,N/A,,Clear,320,2012-10-27 03:35:00
8:55 PM,69.8,15.8,13,29.93,10.0,Calm,Calm,-,N/A,,Clear,0,2012-10-27 03:55:00
9:15 PM,69.8,14.0,12,29.93,10.0,Calm,Calm,-,N/A,,Clear,0,2012-10-27 04:15:00
9:35 PM,68.0,14.0,12,29.93,10.0,Calm,Calm,-,N/A,,Clear,0,2012-10-27 04:35:00
9:55 PM,66.2,12.2,12,29.93,10.0,Calm,Calm,-,N/A,,Clear,0,2012-10-27 04:55:00
10:15 PM,68.0,15.8,13,29.93,10.0,Calm,Calm,-,N/A,,Clear,0,2012-10-27 05:15:00
10:35 PM,66.2,15.8,14,29.93,10.0,North,5.8,-,N/A,,Clear,350,2012-10-27 05:35:00
10:55 PM,66.2,15.8,14,29.93,10.0,North,8.1,-,N/A,,Clear,360,2012-10-27 05:55:00
11:15 PM,64.4,15.8,15,29.93,10.0,North,9.2,-,N/A,,Clear,350,2012-10-27 06:15:00
11:35 PM,64.4,17.6,16,29.93,10.0,North,6.9,-,N/A,,Clear,350,2012-10-27 06:35:00
11:55 PM,64.4,17.6,16,29.93,10.0,North,8.1,-,N/A,,Clear,360,2012-10-27 06:55:00